Location: Unspecified
(45.6635°N, 122.4424°W)
Time: 01:52:32
(UTC+00:00)

CZ-3 Stage 3 - Visible Passes

Search period start: 24 October 2017 00:00
Search period end: 03 November 2017 00:00
Orbit: 420 x 34778 km, 31.0° (Epoch: 22 October)

Date Brightness Start Highest point End Pass type
(mag) Time Alt. Az. Time Alt. Az. Time Alt. Az.
25 Oct 4.9 13:38:21 10° SW 13:44:12 36° SSE 14:16:46 10° ESE visible
28 Oct 4.9 13:29:08 10° SW 13:34:56 35° SSE 14:06:16 10° ESE visible
31 Oct 4.9 13:20:11 12° SW 13:25:40 35° SSE 13:55:47 10° ESE visible
